Weather History for Twentynine Palms, CA

Change the Weather History Date:

Tuesday, May 14, 2013

  Actual Average Record
Temperature  
Mean Temperature 84 °F -  
Max Temperature 99 °F 85 °F 100 °F (1997)
Min Temperature 70 °F 61 °F 45 °F (1998)
Cooling Degree Days 20    
Growing Degree Days 34 (Base 50)    
Moisture  
Dew Point 24 °F    
Average Humidity 12    
Maximum Humidity 20    
Minimum Humidity 6    
Precipitation  
Precipitation 0.00 in - - ()
Sea Level Pressure  
Sea Level Pressure 29.85 in    
Wind  
Wind Speed 10 mph (WSW)    
Max Wind Speed 30 mph    
Max Gust Speed 38 mph    
Visibility 10 miles    
Events      
Averages and records for this station are not official NWS values.
T = Trace of Precipitation, MM = Missing Value Source: NWS Daily Summary

Daily Weather History Graph

Daily Weather History Graph

Search for Another Location

Airport:

Trip Planner

Search our weather history database for the weather conditions in past years. The results will help you decide how hot, cold, wet, or windy it might be!

Date:

Astronomy

May. 14, 2013 Rise Set
Actual Time 5:43 AM PDT 7:39 PM PDT
Civil Twilight 5:15 AM PDT 8:07 PM PDT
Nautical Twilight 4:41 AM PDT 8:40 PM PDT
Astronomical Twilight 4:05 AM PDT 9:16 PM PDT
Moon 9:26 AM PDT (5/14) 11:31 PM PDT (5/14)
Length of Visible Light 14h 51m
Length of Day
13h 56m
Waxing Crescent, 19% of the Moon is Illuminated
May 14
Waxing Crescent
May 17
First Quarter
May 24
Full
May 31
Last Quarter
Jun 8
New

Hourly Weather History & Observations

Time (PDT) Temp. Dew Point Humidity Pressure Visibility Wind Dir Wind Speed Gust Speed Precip Events Conditions
12:56 AM 80.1 °F 26.1 °F 14% 29.88 in 10.0 mi WNW 8.1 mph - N/A   Clear
1:56 AM 78.1 °F 28.0 °F 16% 29.87 in 10.0 mi NW 6.9 mph - N/A   Clear
2:56 AM 78.1 °F 28.9 °F 17% 29.87 in 10.0 mi West 10.4 mph - N/A   Clear
3:56 AM 75.0 °F 28.0 °F 18% 29.86 in 10.0 mi West 11.5 mph - N/A   Clear
4:56 AM 75.0 °F 27.0 °F 17% 29.86 in 10.0 mi West 9.2 mph - N/A   Clear
5:56 AM 70.0 °F 27.0 °F 20% 29.88 in 10.0 mi Calm Calm - N/A   Clear
6:56 AM 73.9 °F 27.0 °F 18% 29.89 in 7.0 mi Calm Calm - N/A   Clear
7:56 AM 77.0 °F 26.1 °F 15% 29.90 in 10.0 mi Calm Calm - N/A   Partly Cloudy
8:56 AM 84.0 °F 26.1 °F 12% 29.90 in 10.0 mi NNW 4.6 mph - N/A   Partly Cloudy
9:56 AM 89.1 °F 21.0 °F 8% 29.89 in 10.0 mi Calm Calm - N/A   Partly Cloudy
10:56 AM 91.9 °F 19.9 °F 7% 29.88 in 10.0 mi Calm Calm - N/A   Partly Cloudy
11:46 AM 98.6 °F 24.8 °F 7% 29.98 in 10.0 mi SSW 20.7 mph 25.3 mph N/A   Clear
11:56 AM 98.1 °F 24.1 °F 7% 29.86 in 10.0 mi SW 18.4 mph 25.3 mph N/A   Partly Cloudy
12:56 PM 97.0 °F 21.0 °F 6% 29.84 in 10.0 mi SW 15.0 mph 26.5 mph N/A   Partly Cloudy
1:56 PM 98.1 °F 19.9 °F 6% 29.82 in 10.0 mi SSW 19.6 mph 27.6 mph N/A   Scattered Clouds
2:56 PM 99.0 °F 21.9 °F 6% 29.79 in 10.0 mi WSW 29.9 mph 35.7 mph N/A   Scattered Clouds
3:56 PM 98.1 °F 19.9 °F 6% 29.78 in 10.0 mi SSW 15.0 mph 32.2 mph N/A   Scattered Clouds
4:56 PM 95.0 °F 18.0 °F 6% 29.79 in 10.0 mi SW 25.3 mph 38.0 mph N/A   Scattered Clouds
5:56 PM 91.9 °F 19.0 °F 7% 29.78 in 10.0 mi SW 26.5 mph 31.1 mph N/A   Clear
6:56 PM 88.0 °F 19.0 °F 8% 29.78 in 10.0 mi SSW 16.1 mph 26.5 mph N/A   Clear
7:56 PM 84.0 °F 23.0 °F 11% 29.80 in 10.0 mi SW 20.7 mph 31.1 mph N/A   Clear
8:56 PM 81.0 °F 25.0 °F 13% 29.81 in 10.0 mi West 11.5 mph 18.4 mph N/A   Clear
9:56 PM 78.1 °F 24.1 °F 14% 29.85 in 10.0 mi WNW 5.8 mph - N/A   Clear
10:56 PM 78.1 °F 25.0 °F 14% 29.86 in 10.0 mi WNW 6.9 mph - N/A   Clear
11:56 PM 75.9 °F 27.0 °F 16% 29.86 in 10.0 mi Variable 3.5 mph - N/A   Clear